This demonstration page uses our WeatherBlox Daily Observations layout. Learn more.

Left ArrowRight Arrow

Hourly Observations for January 9, 2017

Temp ( °F °C ) Dew Point ( °F °C ) Humidity (%) Winds ( mph kmh ) Pressure ( in mb ) Visibility ( mi km ) Precip ( " mm )
12:53 am 00:53 Clear 18 -7.8 12 -11.1 77 77 NW 3 6 30.30 1026 10 16 0.00 0.00
1:53 am 01:53 Cloudy 19 -7.2 13 -10.6 77 77 N 3 6 30.29 1026 10 16 0.00 0.00
2:53 am 02:53 Mostly Cloudy 22 -5.6 15 -9.4 75 75 Calm 30.27 1025 10 16 0.00 0.00
3:53 am 03:53 Mostly Cloudy 19 -7.2 14 -10 81 81 E 5 7 30.24 1024 10 16 0.00 0.00
4:53 am 04:53 Mostly Clear 19 -7.2 12 -11.1 74 74 E 6 9 30.18 1022 10 16 0.00 0.00
5:53 am 05:53 Mostly Cloudy 19 -7.2 12 -11.1 74 74 ESE 7 11 30.13 1020 10 16 0.00 0.00
6:53 am 06:53 Mostly Cloudy 18 -7.8 12 -11.1 77 77 SE 10 17 30.13 1020 10 16 0.00 0.00
7:53 am 07:53 Clear 19 -7.2 12 -11.1 74 74 SSE 14 22 30.08 1019 10 16 0.00 0.00
8:53 am 08:53 Sunny 19 -7.2 13 -10.6 77 77 SE 9 15 30.06 1018 10 16 0.00 0.00
9:53 am 09:53 Sunny 22 -5.6 15 -9.4 75 75 SSE 14 22 30.01 1016 10 16 0.00 0.00
10:53 am 10:53 Sunny 28 -2.2 19 -7.2 69 69 SSE 12 19 29.96 1015 10 16 0.00 0.00
11:53 am 11:53 Sunny 32 0 22 -5.6 66 66 S 9 15 29.90 1013 10 16 0.00 0.00
12:53 pm 12:53 Sunny 36 2.2 23 -5 59 59 S 10 17 29.82 1010 10 16 0.00 0.00
1:53 pm 13:53 Sunny 39 3.9 24 -4.4 55 55 S 12 19 29.76 1008 10 16 0.00 0.00
2:53 pm 14:53 Sunny 40 4.4 26 -3.3 58 58 S 8 13 29.72 1007 10 16 0.00 0.00
3:53 pm 15:53 Sunny 40 4.4 27 -2.8 60 60 S 9 15 29.70 1006 10 16 0.00 0.00
4:53 pm 16:53 Sunny 40 4.4 27 -2.8 60 60 S 7 11 29.68 1005 10 16 0.00 0.00
5:53 pm 17:53 Clear 38 3.3 27 -2.8 65 65 S 3 6 29.68 1005 10 16 0.00 0.00
6:53 pm 18:53 Clear 38 3.3 27 -2.8 65 65 S 10 17 29.64 1004 10 16 0.00 0.00
7:53 pm 19:53 Clear 36 2.2 26 -3.3 67 67 S 6 9 29.63 1004 10 16 0.00 0.00
8:53 pm 20:53 Clear 34 1.1 26 -3.3 73 73 SSW 3 6 29.61 1003 10 16 0.00 0.00
9:53 pm 21:53 Clear 32 0 25 -3.9 75 75 SSE 5 7 29.58 1002 10 16 0.00 0.00
10:53 pm 22:53 Clear 33 0.6 25 -3.9 72 72 SSE 5 7 29.54 1000 10 16 0.00 0.00
11:53 pm 23:53 Clear 32 0 25 -3.9 75 75 SW 3 6 29.51 999 10 16 0.00 0.00

Powered by AerisWeather